Theta_e
302 303 304 306 307 309 311 316 319 333 340 339 336 336 337 336 335 335 336 343 341 340 339 337 333 335 331 329 328 327 326 325 324 323 321 321 324 323 323 324 324 324 326
299 301 302 302 304 305 307 310 312 321 338 340 340 337 339 338 338 337 337 339 341 341 340 337 335 333 332 328 327 327 324 325 324 321 318 315 318 321 324 324 324 323 324
297 297 299 299 301 303 305 307 309 314 321 340 341 340 338 339 336 337 336 338 339 341 340 338 337 335 333 331 329 328 326 323 324 323 319 313 312 314 320 323 324 324 324
298 298 298 298 299 301 304 305 307 308 314 320 337 338 336 334 337 337 338 338 340 339 339 338 337 336 334 332 332 332 329 325 324 322 327 321 321 317 317 324 323 324 325
297 297 298 298 299 299 301 304 306 306 308 312 318 320 331 336 338 337 339 338 338 340 339 338 337 335 335 333 331 332 331 330 327 326 321 324 324 320 320 317 319 329 330
296 298 300 300 298 300 300 301 303 304 307 309 311 313 315 325 333 334 334 336 338 339 340 339 338 336 335 334 333 331 331 331 330 329 326 323 321 322 319 319 318 319 324
295 296 297 298 299 298 300 300 301 302 305 306 308 310 310 312 316 317 320 326 332 335 337 339 339 338 338 336 335 333 332 331 330 330 328 328 326 326 326 324 322 320 323
297 297 298 298 299 299 299 299 300 300 304 305 306 307 309 308 308 310 312 315 315 318 322 325 333 339 340 339 338 335 334 332 332 330 331 331 329 327 329 327 325 318 320
295 296 297 297 300 300 300 300 300 300 301 303 304 305 306 307 307 307 309 309 309 312 316 318 318 323 336 338 339 337 335 334 332 332 332 330 331 328 327 324 325 323 319
295 297 298 298 300 300 300 301 301 300 301 301 303 303 304 304 305 306 306 307 308 310 310 312 316 314 315 319 329 335 336 335 334 332 331 331 331 331 329 328 328 327 325
295 296 298 299 300 301 300 300 300 300 300 301 301 302 302 303 303 303 303 305 307 307 308 309 310 313 312 311 313 316 318 326 331 331 331 332 333 332 332 331 330 328 328
297 298 297 298 299 299 300 300 300 299 300 300 300 301 302 302 302 301 302 303 303 304 306 307 309 309 310 310 308 308 310 313 314 316 322 331 333 332 333 332 330 330 331
294 295 298 298 298 299 299 299 300 300 300 299 300 300 300 300 300 300 302 301 301 300 302 304 306 306 309 307 307 307 307 307 309 313 316 315 318 322 327 330 331 332 332
294 294 293 294 295 296 296 297 296 297 298 298 298 298 300 300 300 299 300 299 299 298 299 300 302 303 304 304 303 304 304 305 306 307 311 315 316 315 313 319 320 322 324
293 293 292 292 292 293 294 296 295 296 297 297 297 297 298 298 298 298 300 299 298 298 300 299 301 301 302 301 299 300 301 302 303 304 307 309 310 304 304 310 313 313 315
292 292 293 293 293 293 294 295 295 295 297 297 296 297 296 297 297 297 297 297 297 297 298 299 299 300 301 296 295 295 298 299 300 302 305 307 307 306 300 300 301 302 310
291 292 293 293 294 294 295 293 294 295 295 295 295 295 295 295 294 295 295 294 294 295 295 296 297 296 298 294 294 292 296 298 300 301 303 304 306 306 310 303 299 298 297
292 292 292 293 293 293 293 294 294 294 294 293 293 294 294 293 289 292 290 290 293 292 292 292 293 293 295 293 292 291 296 297 299 301 302 303 303 303 299 303 305 305 305
292 292 293 293 293 293 293 293 293 293 293 292 293 293 293 293 292 287 284 286 288 288 289 291 291 291 292 292 291 291 293 293 293 298 298 297 297 292 293 297 297 296 293
293 293 293 293 293 293 293 292 292 292 292 292 292 293 294 293 292 290 288 287 289 289 290 290 291 291 291 291 291 291 291 290 290 292 294 292 292 290 291 293 293 290 287
293 294 293 292 292 293 292 291 291 290 293 293 293 293 293 292 291 289 289 288 288 289 288 289 289 290 290 291 291 291 291 290 288 288 287 290 290 290 291 290 290 288 287
293 294 292 292 293 292 292 291 290 293 293 293 292 292 291 291 290 288 287 287 288 287 287 287 287 288 289 289 289 289 289 289 289 288 288 289 289 289 289 288 289 288 287
291 292 291 291 292 292 291 289 290 293 293 292 291 291 290 289 288 287 287 286 287 286 285 285 285 286 287 288 288 288 288 288 286 287 287 287 288 288 286 287 287 285 288
289 290 290 290 289 290 290 291 291 292 291 291 289 289 288 288 288 288 287 286 286 285 285 285 285 285 286 286 285 284 284 284 285 285 285 284 284 283 284 285 285 286 288
290 290 288 287 287 288 288 291 291 291 291 289 288 287 287 287 286 286 286 286 287 287 285 285 285 285 284 285 287 287 286 286 286 286 286 285 285 284 285 285 286 288 288
289 288 287 287 287 287 288 289 291 291 289 288 287 286 286 286 286 285 285 287 287 287 287 287 286 287 287 287 288 288 288 288 287 286 285 284 284 284 284 284 284 286 287
Wind_Speed
20 22 23 23 25 26 26 24 21 14 14 11 11 10 9 10 5 6 13 13 14 14 11 6 7 5 7 7 6 5 6 5 4 3 3 4 6 7 7 7 7 8 10
22 24 24 23 23 22 23 24 22 22 12 13 13 10 11 10 10 7 8 11 14 16 14 12 7 8 5 7 8 6 4 4 5 5 2 3 6 4 7 7 9 10 6
20 21 23 22 21 23 23 23 21 21 20 12 10 6 6 6 8 8 9 7 15 16 16 14 13 9 7 8 7 8 11 7 5 7 6 2 6 1 4 11 10 12 7
17 19 22 23 23 20 20 20 21 22 20 21 10 13 11 12 9 11 11 12 11 16 17 15 15 15 9 9 10 8 7 6 10 3 8 5 4 4 4 3 5 7 9
15 17 19 19 19 19 18 18 20 22 23 22 17 12 10 6 6 5 12 15 15 15 17 16 15 13 11 9 10 12 12 9 8 7 3 8 9 4 5 8 5 2 5
13 15 15 17 19 21 20 18 20 21 22 21 21 17 16 14 6 4 5 5 11 11 16 17 14 15 13 13 10 9 12 13 11 10 8 6 5 11 5 7 8 9 6
7 9 13 15 18 20 20 18 21 20 20 20 21 20 18 17 15 13 9 11 7 4 5 9 14 12 14 14 12 12 12 13 14 14 12 11 10 4 9 8 8 6 6
4 3 5 8 13 15 16 18 18 19 18 18 17 17 18 12 12 13 11 7 9 11 12 7 6 9 15 14 14 12 12 10 11 15 12 10 10 8 7 6 8 4 4
5 6 4 4 6 10 16 15 15 16 16 15 14 15 13 14 13 14 13 10 12 13 13 14 14 13 7 9 14 10 12 13 11 11 12 12 8 6 6 4 6 6 8
5 5 4 6 1 2 4 9 11 12 12 14 13 11 11 12 11 11 13 13 14 12 14 16 13 16 16 11 6 6 10 11 8 8 9 9 8 8 6 6 6 5 10
8 7 5 5 4 3 3 5 9 10 11 10 10 11 10 10 11 12 12 12 8 13 13 11 11 13 13 17 14 10 11 7 6 7 9 13 13 11 10 10 11 12 10
9 8 7 6 5 4 4 5 5 7 7 8 8 10 10 11 12 11 12 9 12 6 8 8 7 11 10 2 14 13 13 13 13 12 11 9 7 13 13 10 12 12 12
5 5 8 7 8 6 4 4 5 6 6 6 6 7 10 10 10 11 7 12 12 12 12 13 13 13 11 7 4 10 10 10 13 14 12 8 10 7 4 6 10 11 10
7 6 7 5 2 2 2 3 6 6 8 6 6 6 7 9 9 9 8 10 10 11 11 11 11 10 8 7 9 10 11 12 8 9 13 12 6 7 13 7 5 6 6
7 6 6 6 6 6 6 6 6 7 7 7 6 6 6 6 6 8 9 9 11 9 8 9 11 10 9 6 10 9 10 10 8 10 6 6 11 8 3 5 10 8 6
6 7 7 7 6 6 5 6 7 8 8 8 9 11 12 12 12 11 8 11 12 12 12 11 10 10 8 11 12 12 11 9 8 9 9 9 12 9 6 4 11 5 5
6 6 6 6 6 9 8 7 6 6 7 9 9 10 11 11 10 10 11 13 12 11 11 11 11 13 12 17 18 17 10 9 10 10 10 10 10 10 6 3 9 7 14
5 6 5 6 6 5 7 8 7 6 7 9 10 10 10 9 7 8 8 9 9 11 11 12 12 12 10 15 14 14 11 10 10 9 9 8 9 11 9 6 2 4 6
6 4 3 4 5 6 7 7 7 9 10 10 10 8 7 10 7 5 4 4 7 7 10 11 13 13 13 15 16 13 9 8 8 7 8 8 8 9 15 10 7 6 5
6 5 4 4 6 4 5 6 6 7 9 10 12 12 11 10 8 6 6 3 5 8 11 12 11 13 13 12 14 13 8 10 8 8 10 11 8 7 9 8 7 7 3
7 5 3 3 3 3 4 5 5 7 8 9 9 11 10 12 8 7 7 10 10 12 11 10 9 11 11 12 15 16 10 10 9 8 5 5 10 13 8 6 5 6 5
6 5 5 4 4 6 6 5 6 8 8 10 13 10 9 8 8 9 8 9 10 11 12 12 9 6 7 9 12 16 14 13 9 8 5 7 12 16 15 10 9 9 8
6 5 6 6 6 6 5 5 6 6 6 8 9 10 10 5 6 11 10 10 9 10 9 9 9 10 8 8 14 16 16 14 8 8 13 18 16 15 10 12 16 11 6
6 5 6 6 6 6 6 5 9 10 10 8 13 12 10 11 11 9 6 7 9 9 9 9 9 9 8 9 8 7 7 10 10 10 9 9 11 11 12 10 8 6 6
5 5 5 4 3 4 5 5 7 6 6 8 13 12 8 9 10 7 6 8 8 9 10 10 10 10 10 10 15 16 12 11 12 13 9 7 7 8 8 8 7 6 6
3 2 2 2 1 3 5 6 6 3 4 8 8 6 7 8 8 8 10 9 14 16 19 21 16 10 17 21 21 21 22 22 19 10 9 9 8 8 8 7 8 6 7
Wind_Direction
3 1 5 5 4 9 4 5 350 311 181 180 184 189 193 195 199 194 194 185 190 198 199 196 206 201 203 196 187 169 189 225 185 135 292 289 252 243 239 231 228 224 228
7 6 3 5 8 5 1 4 356 345 263 186 190 197 188 195 196 200 201 185 189 195 204 201 200 207 197 207 191 176 186 207 190 194 143 277 305 259 233 229 234 231 213
1 10 8 6 5 8 3 360 356 353 349 259 203 197 205 199 204 206 209 195 196 196 199 201 204 203 196 207 201 194 197 209 221 196 164 169 229 285 249 236 229 234 221
7 3 4 4 8 7 4 5 4 3 358 348 286 192 191 205 196 210 211 214 199 204 200 197 200 208 205 204 208 197 199 171 216 228 224 224 156 194 308 298 252 231 223
5 7 4 357 358 8 8 6 8 13 11 10 14 12 316 222 228 207 203 210 209 203 203 200 200 205 211 210 205 210 208 202 210 208 186 224 236 209 201 266 287 278 225
358 355 358 2 2 6 6 7 13 15 16 17 16 10 11 357 319 329 318 294 235 205 200 196 195 205 211 215 212 210 207 207 211 212 209 192 186 227 206 239 251 249 269
353 350 353 1 1 2 3 5 7 15 19 19 20 15 14 16 20 13 353 350 322 296 255 215 196 204 205 211 213 213 216 214 213 211 216 224 226 194 210 219 246 232 245
292 318 4 5 3 4 353 4 4 10 11 19 20 18 18 23 18 11 4 337 350 11 336 338 341 234 208 209 209 215 218 220 223 225 220 225 229 222 216 211 215 267 253
284 329 11 45 7 3 352 360 1 7 7 16 19 19 15 15 19 21 12 4 14 10 354 3 1 349 314 241 214 214 216 216 217 217 211 222 221 222 226 207 202 216 253
223 267 281 301 200 330 6 360 358 5 4 10 17 20 15 18 11 11 22 16 16 3 351 7 351 13 355 5 349 257 233 217 210 215 208 205 210 224 215 221 234 224 248
206 211 222 261 263 269 331 22 17 358 1 6 9 13 12 17 20 11 13 17 9 6 345 25 355 22 25 347 357 25 9 323 245 219 205 225 226 232 229 229 234 242 242
199 207 214 231 250 240 265 313 358 16 353 1 8 12 10 9 24 13 7 350 14 352 18 8 348 23 48 195 345 8 1 357 7 2 355 275 244 231 229 222 224 232 229
137 200 206 222 244 232 242 264 296 317 314 343 15 23 16 10 14 6 350 20 5 2 355 350 359 7 7 40 8 328 324 19 18 357 327 334 336 331 316 266 240 238 241
62 52 37 60 51 18 15 23 353 345 331 332 7 17 11 10 1 354 358 8 10 357 347 354 347 342 344 19 10 342 353 4 20 289 347 306 331 359 337 312 335 357 336
50 40 31 27 25 14 10 14 357 344 331 348 29 357 0 355 341 341 348 357 356 1 354 348 347 341 343 357 2 8 354 345 344 341 305 309 310 290 240 340 323 342 3
48 39 31 30 8 353 22 10 2 349 0 21 12 13 12 4 355 347 348 354 350 351 350 355 350 338 342 353 357 349 332 333 332 317 320 318 308 1 321 7 274 262 350
47 36 33 15 354 35 24 11 353 10 9 25 15 11 2 351 350 359 358 349 345 343 341 349 345 346 341 346 344 358 344 329 336 330 323 320 334 337 292 310 291 304 254
57 44 16 3 60 38 16 353 358 4 28 19 3 357 349 340 332 351 354 349 348 342 349 337 344 330 330 333 340 346 343 331 321 317 316 324 339 337 334 323 292 305 353
99 75 15 60 67 39 9 1 3 16 8 5 354 340 335 328 329 336 315 328 337 337 330 332 334 329 325 336 336 340 337 326 315 324 337 354 8 1 16 7 354 327 351
116 82 25 86 79 58 24 7 4 20 3 356 344 333 327 320 321 319 336 318 324 327 328 325 321 317 316 317 316 325 324 316 314 321 318 324 313 341 344 337 342 317 281
116 100 57 76 117 83 50 31 20 2 341 338 327 320 330 334 343 359 343 329 329 329 324 316 315 314 313 318 318 321 327 312 312 297 296 291 289 292 295 302 279 255 251
97 84 62 41 70 64 57 19 352 338 331 328 329 329 339 330 352 339 334 329 326 324 319 316 313 305 301 300 306 302 298 299 303 293 290 293 306 309 308 310 281 278 278
86 65 53 35 34 40 45 8 319 333 319 323 327 329 327 332 337 330 328 323 321 319 312 311 311 313 313 303 291 292 294 296 297 292 292 294 298 297 301 288 285 285 289
77 65 49 36 20 17 357 340 335 329 329 327 333 329 332 326 328 321 304 308 312 310 304 304 302 299 299 297 298 295 299 292 289 289 290 284 283 286 281 282 272 260 252
71 69 70 54 19 349 322 327 325 329 330 328 329 327 319 322 320 306 298 306 294 289 300 300 297 301 299 289 284 287 289 289 283 283 279 270 264 276 285 291 281 262 256
121 123 126 143 242 288 290 297 307 316 309 322 326 316 317 315 314 312 312 288 281 289 291 290 286 286 285 291 290 289 289 289 287 285 281 274 272 271 272 269 275 266 258